Tracking 35331 objects as of 16-Sep-2026
HD Live streaming from Space Station
objects crossing your sky now

STARLINK-4031

Track STARLINK-4031 now!
10-day predictions
STARLINK-4031 is classified as:


NORAD ID: 52679
Int'l Code: 2022-053Z
Launch date: May 18, 2022
Source: United States (US)
Launch site: AIR FORCE EASTERN TEST RANGE (AFETR)
Your satellite tracking list
Your tracking list is empty




NASA's NSSDC Master Catalog

Two Line Element Set (TLE):
1 52679U 22053Z   26259.25002315  .00096905  00000-0  36223-2 0  9990
2 52679  53.1589   6.8693 0001386  90.6339 123.8967 15.26563041  5747
Source of the keplerian elements: AFSPC